"read_dt","SO2 (ppb)","flags","PMT voltage (V)","lamp voltage (V)","lamp intensity (Hz)","internal temp (C)","react chamber temp (C)","sample flow (l/min)","pres (mmHg)","SO2 bkg (ppb)","SO2 coefficient"
2017-05-09 00:00:00,1676E-3,5C000400,-0724,0833,12107,028.9,045.5,0.217,748.6,01.17,0.508
2017-05-09 00:01:00,1675E-3,5C000400,-0724,0835,12094,028.9,045.5,0.218,748.6,01.17,0.508
2017-05-09 00:02:00,1804E-3,5C000400,-0724,0833,12195,028.9,045.5,0.218,748.6,01.17,0.508
2017-05-09 00:03:00,1743E-3,5C000400,-0724,0834,11013,028.7,045.5,0.218,748.6,01.17,0.508
2017-05-09 00:04:00,1814E-3,5C000400,-0724,0834,12118,028.6,045.5,0.218,748.6,01.17,0.508
2017-05-09 00:05:00,1662E-3,5C000400,-0724,0833,12235,028.7,045.5,0.218,748.6,01.17,0.508
2017-05-09 00:06:00,1639E-3,5C000410,-0724,0835,12290,028.6,045.5,0.218,748.6,01.17,0.508
2017-05-09 00:07:00,1768E-3,5C000400,-0724,0833,12130,028.6,045.5,0.219,748.6,01.17,0.508
2017-05-09 00:08:00,1690E-3,5C000400,-0724,0833,12086,028.5,045.5,0.218,748.6,01.17,0.508
2017-05-09 00:09:00,1781E-3,5C000400,-0724,0834,12317,028.4,045.5,0.219,748.6,01.17,0.508
2017-05-09 00:10:00,1729E-3,5C000400,-0724,0832,12148,028.4,045.5,0.219,748.6,01.17,0.508
2017-05-09 00:11:00,1866E-3,5C000400,-0724,0834,12020,028.4,045.5,0.219,748.6,01.17,0.508
2017-05-09 00:12:00,1802E-3,5C000400,-0724,0834,12085,028.4,045.5,0.220,748.6,01.17,0.508
2017-05-09 00:13:00,1676E-3,5C000400,-0724,0833,12077,028.4,045.4,0.220,748.6,01.17,0.508
2017-05-09 00:14:00,1760E-3,5C000400,-0724,0835,12034,028.3,045.5,0.219,748.6,01.17,0.508
2017-05-09 00:15:00,1853E-3,5C000400,-0724,0834,12305,028.3,045.5,0.219,748.7,01.17,0.508
2017-05-09 00:16:00,1703E-3,5C000400,-0724,0834,12131,028.3,045.5,0.220,748.6,01.17,0.508
2017-05-09 00:17:00,1758E-3,5C000400,-0724,0833,12029,028.2,045.5,0.219,748.7,01.17,0.508
2017-05-09 00:18:00,1844E-3,5C000400,-0724,0833,11993,028.2,045.5,0.220,748.7,01.17,0.508
2017-05-09 00:19:00,1626E-3,5C000400,-0724,0834,12079,028.2,045.4,0.220,748.7,01.17,0.508
2017-05-09 00:20:00,1682E-3,5C000400,-0724,0833,12032,028.1,045.5,0.220,748.7,01.17,0.508
2017-05-09 00:21:00,1653E-3,5C000400,-0724,0833,12169,028.1,045.5,0.220,748.7,01.17,0.508
2017-05-09 00:22:00,1739E-3,5C000400,-0724,0834,12126,028.1,045.5,0.220,748.7,01.17,0.508
2017-05-09 00:23:00,1694E-3,5C000400,-0724,0834,12131,028.1,045.5,0.220,748.7,01.17,0.508
2017-05-09 00:24:00,1688E-3,5C000400,-0724,0834,12001,028.1,045.5,0.220,748.7,01.17,0.508
2017-05-09 00:25:00,1679E-3,5C000400,-0724,0835,12108,028.1,045.4,0.220,748.7,01.17,0.508
2017-05-09 00:26:00,1754E-3,5C000400,-0724,0833,12072,028.0,045.4,0.220,748.7,01.17,0.508
2017-05-09 00:27:00,1709E-3,5C000400,-0724,0833,12247,028.0,045.5,0.220,748.7,01.17,0.508
2017-05-09 00:28:00,1664E-3,5C000400,-0724,0834,12244,028.0,045.5,0.220,748.7,01.17,0.508
2017-05-09 00:29:00,1705E-3,5C000400,-0724,0836,12233,028.0,045.5,0.221,748.7,01.17,0.508
2017-05-09 00:30:00,1706E-3,5C000400,-0724,0834,12011,028.0,045.5,0.220,748.7,01.17,0.508
2017-05-09 00:31:00,1785E-3,5C000400,-0724,0835,12083,028.0,045.4,0.221,748.7,01.17,0.508
2017-05-09 00:32:00,1638E-3,5C000400,-0724,0834,12059,028.0,045.5,0.220,748.7,01.17,0.508
2017-05-09 00:33:00,1833E-3,5C000400,-0724,0835,12024,028.0,045.4,0.221,748.7,01.17,0.508
2017-05-09 00:34:00,1816E-3,5C000400,-0724,0835,12104,027.9,045.4,0.221,748.7,01.17,0.508
2017-05-09 00:35:00,1733E-3,5C000400,-0724,0835,12165,027.9,045.4,0.220,748.7,01.17,0.508
2017-05-09 00:36:00,1787E-3,5C000400,-0724,0834,12230,028.0,045.4,0.221,748.7,01.17,0.508
2017-05-09 00:37:00,1738E-3,5C000400,-0724,0834,12332,028.0,045.4,0.221,748.7,01.17,0.508
2017-05-09 00:38:00,1722E-3,5C000400,-0724,0834,12177,028.1,045.4,0.221,748.7,01.17,0.508
2017-05-09 00:39:00,1598E-3,5C000400,-0724,0834,12085,028.2,045.5,0.221,748.7,01.17,0.508
2017-05-09 00:40:00,1719E-3,5C000400,-0724,0835,12111,028.3,045.5,0.220,748.7,01.17,0.508
2017-05-09 00:41:00,1707E-3,5C000400,-0724,0835,12102,028.4,045.4,0.221,748.7,01.17,0.508
2017-05-09 00:42:00,1752E-3,5C000400,-0724,0835,12071,028.5,045.5,0.221,748.7,01.17,0.508
2017-05-09 00:43:00,1721E-3,5C000400,-0724,0835,12127,028.6,045.5,0.220,748.6,01.17,0.508
2017-05-09 00:44:00,1629E-3,5C000400,-0724,0834,12039,028.7,045.5,0.220,748.6,01.17,0.508
2017-05-09 00:45:00,1752E-3,5C000400,-0724,0835,12158,028.8,045.5,0.220,748.6,01.17,0.508
2017-05-09 00:46:00,1701E-3,5C000400,-0724,0834,12164,028.9,045.5,0.220,748.6,01.17,0.508
2017-05-09 00:47:00,1773E-3,5C000400,-0724,0835,12139,029.0,045.5,0.220,748.6,01.17,0.508
2017-05-09 00:48:00,1708E-3,5C000400,-0724,0835,12033,029.1,045.5,0.220,748.6,01.17,0.508
2017-05-09 00:49:00,1688E-3,5C000400,-0724,0835,12032,029.2,045.5,0.220,748.6,01.17,0.508
2017-05-09 00:50:00,1788E-3,5C000400,-0724,0835,12260,029.2,045.5,0.219,748.6,01.17,0.508
2017-05-09 00:51:00,1567E-3,5C000400,-0724,0835,11968,029.3,045.5,0.219,748.6,01.17,0.508
2017-05-09 00:52:00,1813E-3,5C000400,-0724,0837,12136,029.4,045.5,0.219,748.6,01.17,0.508
2017-05-09 00:53:00,1679E-3,5C000400,-0724,0835,12041,029.5,045.5,0.219,748.5,01.17,0.508
2017-05-09 00:54:00,1657E-3,5C000400,-0724,0834,11118,029.6,045.5,0.219,748.5,01.17,0.508
2017-05-09 00:55:00,1737E-3,5C000400,-0724,0834,12087,029.6,045.5,0.219,748.6,01.17,0.508
2017-05-09 00:56:00,1792E-3,5C000400,-0724,0834,12000,029.7,045.5,0.218,748.6,01.17,0.508
2017-05-09 00:57:00,1573E-3,5C000400,-0724,0834,12067,029.8,045.5,0.218,748.5,01.17,0.508
2017-05-09 00:58:00,1687E-3,5C000400,-0724,0834,12161,029.8,045.5,0.218,748.5,01.17,0.508
2017-05-09 00:59:00,1695E-3,5C000400,-0724,0836,12224,029.9,045.5,0.218,748.5,01.17,0.508
2017-05-09 01:00:00,1769E-3,5C000400,-0724,0835,11874,030.0,045.5,0.218,748.5,01.17,0.508
2017-05-09 01:01:00,1845E-3,5C000400,-0724,0836,12009,030.0,045.5,0.217,748.5,01.17,0.508
2017-05-09 01:02:00,1773E-3,5C000400,-0724,0835,12194,030.1,045.5,0.217,748.5,01.17,0.508
2017-05-09 01:03:00,1752E-3,5C000400,-0724,0836,12154,030.1,045.5,0.217,748.6,01.17,0.508
2017-05-09 01:04:00,1938E-3,5C000400,-0724,0835,12136,030.2,045.5,0.217,748.5,01.17,0.508
2017-05-09 01:05:00,1565E-3,5C000400,-0724,0835,12143,030.2,045.5,0.217,748.5,01.17,0.508
2017-05-09 01:06:00,1882E-3,5C000400,-0724,0835,12139,030.2,045.5,0.217,748.6,01.17,0.508
2017-05-09 01:07:00,1762E-3,5C000400,-0724,0835,12113,030.2,045.5,0.216,748.6,01.17,0.508
2017-05-09 01:08:00,1752E-3,5C000400,-0724,0836,12088,030.2,045.5,0.217,748.6,01.17,0.508
2017-05-09 01:09:00,1716E-3,5C000400,-0724,0834,12012,030.0,045.5,0.216,748.6,01.17,0.508
2017-05-09 01:10:00,1745E-3,5C000400,-0724,0833,11935,029.9,045.5,0.217,748.6,01.17,0.508
2017-05-09 01:11:00,1738E-3,5C000400,-0724,0835,12238,029.7,045.5,0.217,748.6,01.17,0.508
2017-05-09 01:12:00,1703E-3,5C000400,-0724,0835,11992,029.5,045.5,0.217,748.6,01.17,0.508
2017-05-09 01:13:00,1732E-3,5C000400,-0724,0835,11945,029.3,045.5,0.217,748.6,01.17,0.508
2017-05-09 01:14:00,1795E-3,5C000400,-0724,0834,12123,029.2,045.5,0.217,748.7,01.17,0.508
2017-05-09 01:15:00,1603E-3,5C000400,-0724,0833,12089,029.0,045.5,0.217,748.7,01.17,0.508
2017-05-09 01:16:00,1742E-3,5C000400,-0724,0834,12152,028.9,045.5,0.217,748.7,01.17,0.508
2017-05-09 01:17:00,1620E-3,5C000400,-0724,0833,11955,028.8,045.5,0.217,748.7,01.17,0.508
2017-05-09 01:18:00,1658E-3,5C000400,-0724,0834,11062,028.7,045.5,0.218,748.7,01.17,0.508
2017-05-09 01:19:00,1797E-3,5C000400,-0724,0833,12161,028.7,045.5,0.218,748.7,01.17,0.508
2017-05-09 01:20:00,1775E-3,5C000400,-0724,0834,12092,028.6,045.5,0.218,748.7,01.17,0.508
2017-05-09 01:21:00,1816E-3,5C000400,-0724,0834,12137,028.6,045.5,0.219,748.7,01.17,0.508
2017-05-09 01:22:00,1702E-3,5C000400,-0724,0834,12371,028.5,045.5,0.218,748.7,01.17,0.508
2017-05-09 01:23:00,1752E-3,5C000400,-0724,0835,12195,028.5,045.5,0.219,748.7,01.17,0.508
2017-05-09 01:24:00,1670E-3,5C000400,-0724,0834,12028,028.5,045.4,0.219,748.7,01.17,0.508
2017-05-09 01:25:00,1841E-3,5C000400,-0724,0834,12206,028.4,045.5,0.219,748.7,01.17,0.508
2017-05-09 01:26:00,1741E-3,5C000400,-0724,0834,12024,028.3,045.5,0.219,748.7,01.17,0.508
2017-05-09 01:27:00,1857E-3,5C000400,-0724,0834,12060,028.3,045.5,0.219,748.7,01.17,0.508
2017-05-09 01:28:00,1791E-3,5C000400,-0724,0835,12151,028.3,045.5,0.219,748.7,01.17,0.508
2017-05-09 01:29:00,1776E-3,5C000400,-0724,0833,10974,028.3,045.5,0.219,748.7,01.17,0.508
2017-05-09 01:30:00,1660E-3,5C000400,-0724,0834,12225,028.2,045.5,0.220,748.7,01.17,0.508
2017-05-09 01:31:00,1849E-3,5C000400,-0724,0833,12134,028.1,045.5,0.219,748.7,01.17,0.508
2017-05-09 01:32:00,1658E-3,5C000400,-0724,0833,12235,028.1,045.5,0.220,748.7,01.17,0.508
2017-05-09 01:33:00,1797E-3,5C000400,-0724,0835,12316,028.1,045.5,0.220,748.7,01.17,0.508
2017-05-09 01:34:00,1601E-3,5C000400,-0724,0834,12249,028.1,045.5,0.220,748.8,01.17,0.508
2017-05-09 01:35:00,1701E-3,5C000400,-0724,0835,12083,028.1,045.5,0.220,748.7,01.17,0.508
2017-05-09 01:36:00,1748E-3,5C000400,-0724,0835,12237,028.0,045.4,0.220,748.7,01.17,0.508
2017-05-09 01:37:00,1781E-3,5C000400,-0724,0835,11022,028.0,045.4,0.220,748.8,01.17,0.508
2017-05-09 01:38:00,1737E-3,5C000400,-0724,0834,12136,028.0,045.4,0.220,748.7,01.17,0.508
2017-05-09 01:39:00,1655E-3,5C000400,-0724,0834,12055,028.0,045.5,0.221,748.7,01.17,0.508
2017-05-09 01:40:00,1715E-3,5C000400,-0724,0833,12140,028.0,045.5,0.220,748.7,01.17,0.508
2017-05-09 01:41:00,1637E-3,5C000400,-0724,0835,12132,028.0,045.5,0.220,748.8,01.17,0.508
2017-05-09 01:42:00,1814E-3,5C000400,-0724,0833,12099,027.9,045.5,0.221,748.8,01.17,0.508
2017-05-09 01:43:00,1720E-3,5C000400,-0724,0836,10010,027.9,045.5,0.220,748.8,01.17,0.508
2017-05-09 01:44:00,1567E-3,5C000400,-0724,0834,12242,027.9,045.5,0.221,748.8,01.17,0.508
2017-05-09 01:45:00,1859E-3,5C000400,-0724,0835,12191,027.9,045.5,0.220,748.7,01.17,0.508
2017-05-09 01:46:00,1648E-3,5C000400,-0724,0834,12233,027.9,045.5,0.221,748.7,01.17,0.508
2017-05-09 01:47:00,1761E-3,5C000400,-0724,0834,12213,027.8,045.4,0.221,748.7,01.17,0.508
2017-05-09 01:48:00,1723E-3,5C000400,-0724,0835,11955,027.8,045.4,0.221,748.8,01.17,0.508
2017-05-09 01:49:00,1844E-3,5C000400,-0724,0833,12224,027.9,045.4,0.221,748.7,01.17,0.508
2017-05-09 01:50:00,1630E-3,5C000400,-0724,0835,12063,027.9,045.5,0.221,748.7,01.17,0.508
2017-05-09 01:51:00,1690E-3,5C000400,-0724,0836,10811,027.9,045.5,0.221,748.8,01.17,0.508
2017-05-09 01:52:00,1679E-3,5C000400,-0724,0835,12224,027.9,045.5,0.221,748.8,01.17,0.508
2017-05-09 01:53:00,1748E-3,5C000400,-0724,0835,12260,027.8,045.5,0.221,748.8,01.17,0.508
2017-05-09 01:54:00,1741E-3,5C000400,-0724,0835,12142,027.8,045.5,0.221,748.8,01.17,0.508
2017-05-09 01:55:00,1688E-3,5C000400,-0724,0835,12029,027.8,045.4,0.221,748.8,01.17,0.508
2017-05-09 01:56:00,1740E-3,5C000400,-0724,0834,12078,027.8,045.5,0.221,748.8,01.17,0.508
2017-05-09 01:57:00,1621E-3,5C000400,-0724,0837,12241,027.8,045.4,0.221,748.8,01.17,0.508
2017-05-09 01:58:00,1633E-3,5C000400,-0724,0834,12180,027.9,045.5,0.221,748.8,01.17,0.508
2017-05-09 01:59:00,1826E-3,5C000400,-0724,0835,12045,027.8,045.4,0.221,748.7,01.17,0.508
2017-05-09 02:00:00,1734E-3,5C000400,-0724,0835,12044,027.8,045.4,0.221,748.8,01.17,0.508
2017-05-09 02:01:00,1703E-3,5C000400,-0724,0835,12186,027.8,045.4,0.221,748.8,01.17,0.508
2017-05-09 02:02:00,1709E-3,5C000400,-0724,0835,12121,027.8,045.5,0.221,748.8,01.17,0.508
2017-05-09 02:03:00,1637E-3,5C000400,-0724,0835,12038,027.8,045.5,0.221,748.7,01.17,0.508
2017-05-09 02:04:00,1667E-3,5C000400,-0724,0835,12042,027.8,045.5,0.221,748.7,01.17,0.508
2017-05-09 02:05:00,1781E-3,5C000400,-0724,0835,12222,027.8,045.5,0.221,748.7,01.17,0.508
2017-05-09 02:06:00,1796E-3,5C000400,-0724,0835,12104,027.8,045.5,0.221,748.7,01.17,0.508
2017-05-09 02:07:00,1699E-3,5C000400,-0724,0835,12039,027.8,045.4,0.221,748.7,01.17,0.508
2017-05-09 02:08:00,1777E-3,5C000400,-0724,0835,12146,027.8,045.4,0.221,748.7,01.17,0.508
2017-05-09 02:09:00,1671E-3,5C000400,-0724,0834,12125,027.8,045.5,0.221,748.7,01.17,0.508
2017-05-09 02:10:00,1696E-3,5C000400,-0724,0834,11998,027.8,045.5,0.222,748.7,01.17,0.508
2017-05-09 02:11:00,1716E-3,5C000400,-0724,0833,12048,027.7,045.4,0.221,748.7,01.17,0.508
2017-05-09 02:12:00,1701E-3,5C000400,-0724,0835,12077,027.7,045.4,0.222,748.7,01.17,0.508
2017-05-09 02:13:00,1679E-3,5C000400,-0724,0834,12178,027.7,045.4,0.222,748.7,01.17,0.508
2017-05-09 02:14:00,1595E-3,5C000400,-0724,0834,12081,027.7,045.5,0.221,748.8,01.17,0.508
2017-05-09 02:15:00,1783E-3,5C000400,-0724,0833,12077,027.7,045.5,0.221,748.8,01.17,0.508
2017-05-09 02:16:00,1725E-3,5C000400,-0724,0835,12237,027.7,045.4,0.221,748.8,01.17,0.508
2017-05-09 02:17:00,1807E-3,5C000400,-0724,0834,12052,027.8,045.4,0.221,748.8,01.17,0.508
2017-05-09 02:18:00,1702E-3,5C000400,-0724,0834,12145,027.8,045.4,0.221,748.8,01.17,0.508
2017-05-09 02:19:00,1660E-3,5C000400,-0724,0835,11169,027.7,045.4,0.221,748.8,01.17,0.508
2017-05-09 02:20:00,1773E-3,5C000400,-0724,0834,12052,027.7,045.4,0.221,748.8,01.17,0.508
2017-05-09 02:21:00,1787E-3,5C000400,-0724,0834,12270,027.7,045.4,0.221,748.8,01.17,0.508
2017-05-09 02:22:00,1721E-3,5C000400,-0724,0834,12271,027.7,045.4,0.221,748.8,01.17,0.508
2017-05-09 02:23:00,1614E-3,5C000400,-0724,0835,12115,027.7,045.4,0.221,748.8,01.17,0.508
2017-05-09 02:24:00,1771E-3,5C000400,-0724,0836,12218,027.7,045.5,0.221,748.8,01.17,0.508
2017-05-09 02:25:00,1661E-3,5C000400,-0724,0835,12214,027.7,045.4,0.221,748.8,01.17,0.508
2017-05-09 02:26:00,1781E-3,5C000400,-0724,0835,11004,027.7,045.4,0.222,748.8,01.17,0.508
2017-05-09 02:27:00,1761E-3,5C000400,-0724,0835,10972,027.7,045.4,0.221,748.8,01.17,0.508
2017-05-09 02:28:00,1778E-3,5C000400,-0724,0836,12228,027.7,045.5,0.221,748.7,01.17,0.508
2017-05-09 02:29:00,1572E-3,5C000400,-0724,0834,11093,027.7,045.5,0.221,748.8,01.17,0.508
2017-05-09 02:30:00,1727E-3,5C000400,-0724,0835,12059,027.7,045.4,0.221,748.7,01.17,0.508
2017-05-09 02:31:00,1733E-3,5C000400,-0724,0834,12097,027.7,045.5,0.221,748.8,01.17,0.508
2017-05-09 02:32:00,1669E-3,5C000400,-0724,0834,12102,027.7,045.5,0.221,748.7,01.17,0.508
2017-05-09 02:33:00,1650E-3,5C000400,-0724,0835,12200,027.7,045.4,0.221,748.8,01.17,0.508
2017-05-09 02:34:00,1677E-3,5C000400,-0724,0835,12146,027.7,045.4,0.221,748.8,01.17,0.508
2017-05-09 02:35:00,1756E-3,5C000400,-0724,0834,12136,027.7,045.4,0.222,748.8,01.17,0.508
2017-05-09 02:36:00,1695E-3,5C000400,-0724,0834,12042,027.7,045.4,0.221,748.8,01.17,0.508
2017-05-09 02:37:00,1798E-3,5C000400,-0724,0835,12088,027.7,045.4,0.222,748.8,01.17,0.508
2017-05-09 02:38:00,1806E-3,5C000400,-0724,0837,12107,027.7,045.4,0.221,748.8,01.17,0.508
2017-05-09 02:39:00,1703E-3,5C000400,-0724,0834,12127,027.7,045.5,0.221,748.8,01.17,0.508
2017-05-09 02:40:00,1755E-3,5C000400,-0724,0834,11995,027.6,045.4,0.221,748.8,01.17,0.508
2017-05-09 02:41:00,1731E-3,5C000400,-0724,0834,12098,027.6,045.4,0.221,748.8,01.17,0.508
2017-05-09 02:42:00,1680E-3,5C000400,-0724,0834,11799,027.7,045.4,0.222,748.8,01.17,0.508
2017-05-09 02:43:00,1718E-3,5C000400,-0724,0834,12101,027.7,045.4,0.221,748.8,01.17,0.508
2017-05-09 02:44:00,1660E-3,5C000400,-0724,0834,12174,027.7,045.4,0.222,748.8,01.17,0.508
2017-05-09 02:45:00,1699E-3,5C000400,-0724,0835,12136,027.7,045.5,0.221,748.8,01.17,0.508
2017-05-09 02:46:00,1986E-3,5C000400,-0724,0834,12135,027.6,045.5,0.222,748.8,01.17,0.508
2017-05-09 02:47:00,1661E-3,5C000400,-0724,0836,12034,027.6,045.4,0.221,748.8,01.17,0.508
2017-05-09 02:48:00,1711E-3,5C000400,-0724,0835,12180,027.7,045.5,0.222,748.8,01.17,0.508
2017-05-09 02:49:00,1649E-3,5C000400,-0724,0834,11027,027.7,045.5,0.221,748.8,01.17,0.508
2017-05-09 02:50:00,1686E-3,5C000400,-0724,0838,12254,027.7,045.4,0.221,748.8,01.17,0.508
2017-05-09 02:51:00,1660E-3,5C000400,-0724,0835,12047,027.7,045.4,0.222,748.8,01.17,0.508
2017-05-09 02:52:00,1689E-3,5C000400,-0724,0835,12182,027.6,045.4,0.221,748.8,01.17,0.508
2017-05-09 02:53:00,1729E-3,5C000400,-0724,0835,12188,027.6,045.5,0.222,748.8,01.17,0.508
2017-05-09 02:54:00,1679E-3,5C000400,-0724,0834,12201,027.7,045.4,0.221,748.8,01.17,0.508
2017-05-09 02:55:00,1695E-3,5C000400,-0724,0835,12160,027.7,045.4,0.222,748.8,01.17,0.508
2017-05-09 02:56:00,1768E-3,5C000400,-0724,0835,12099,027.6,045.4,0.221,748.8,01.17,0.508
2017-05-09 02:57:00,1763E-3,5C000400,-0724,0835,12094,027.6,045.4,0.222,748.8,01.17,0.508
2017-05-09 02:58:00,1689E-3,5C000400,-0724,0834,12072,027.6,045.4,0.221,748.8,01.17,0.508
2017-05-09 02:59:00,1619E-3,5C000400,-0724,0834,12085,027.6,045.5,0.222,748.8,01.17,0.508
2017-05-09 03:00:00,1691E-3,5C000400,-0724,0834,12095,027.6,045.4,0.221,748.8,01.17,0.508
2017-05-09 03:01:00,1679E-3,5C000400,-0724,0836,12193,027.6,045.4,0.222,748.8,01.17,0.508
2017-05-09 03:02:00,1657E-3,5C000400,-0724,0834,12105,027.6,045.5,0.221,748.8,01.17,0.508
2017-05-09 03:03:00,1720E-3,5C000400,-0724,0835,12228,027.6,045.5,0.222,748.8,01.17,0.508
2017-05-09 03:04:00,1804E-3,5C000400,-0724,0835,12116,027.6,045.4,0.222,748.8,01.17,0.508
2017-05-09 03:05:00,1749E-3,5C000400,-0724,0834,12202,027.6,045.5,0.222,748.8,01.17,0.508
2017-05-09 03:06:00,1709E-3,5C000400,-0724,0834,12146,027.6,045.4,0.222,748.8,01.17,0.508
2017-05-09 03:07:00,1774E-3,5C000400,-0724,0834,12078,027.6,045.4,0.222,748.8,01.17,0.508
2017-05-09 03:08:00,1877E-3,5C000400,-0724,0835,11845,027.5,045.4,0.222,748.8,01.17,0.508
2017-05-09 03:09:00,1711E-3,5C000400,-0724,0834,12101,027.6,045.4,0.222,748.8,01.17,0.508
2017-05-09 03:10:00,1675E-3,5C000400,-0724,0835,12295,027.6,045.5,0.222,748.8,01.17,0.508
2017-05-09 03:11:00,1801E-3,5C000400,-0724,0834,12099,027.5,045.5,0.222,748.8,01.17,0.508
2017-05-09 03:12:00,1845E-3,5C000400,-0724,0834,12071,027.5,045.5,0.222,748.8,01.17,0.508
2017-05-09 03:13:00,1687E-3,5C000400,-0724,0834,12015,027.5,045.4,0.222,748.8,01.17,0.508
2017-05-09 03:14:00,1790E-3,5C000400,-0724,0834,11956,027.5,045.4,0.222,748.9,01.17,0.508
2017-05-09 03:15:00,1683E-3,5C000400,-0724,0834,12200,027.5,045.4,0.222,748.8,01.17,0.508
2017-05-09 03:16:00,1647E-3,5C000400,-0724,0835,12102,027.5,045.5,0.222,748.8,01.17,0.508
2017-05-09 03:17:00,1679E-3,5C000400,-0724,0834,11875,027.6,045.5,0.222,748.8,01.17,0.508
2017-05-09 03:18:00,1643E-3,5C000400,-0724,0834,12161,027.6,045.5,0.222,748.8,01.17,0.508
2017-05-09 03:19:00,1775E-3,5C000400,-0724,0834,12088,027.5,045.5,0.221,748.8,01.17,0.508
2017-05-09 03:20:00,1844E-3,5C000400,-0724,0834,12195,027.5,045.5,0.222,748.9,01.17,0.508
2017-05-09 03:21:00,1702E-3,5C000400,-0724,0834,11941,027.5,045.4,0.222,748.9,01.17,0.508
2017-05-09 03:22:00,1730E-3,5C000400,-0724,0835,12179,027.5,045.4,0.222,748.8,01.17,0.508
2017-05-09 03:23:00,1758E-3,5C000400,-0724,0834,11994,027.5,045.4,0.221,748.8,01.17,0.508
2017-05-09 03:24:00,1741E-3,5C000400,-0724,0835,11967,027.5,045.4,0.222,748.8,01.17,0.508
2017-05-09 03:25:00,1748E-3,5C000400,-0724,0835,12126,027.5,045.5,0.222,748.9,01.17,0.508
2017-05-09 03:26:00,1820E-3,5C000400,-0724,0834,12280,027.5,045.5,0.222,748.9,01.17,0.508
2017-05-09 03:27:00,1631E-3,5C000400,-0724,0834,12212,027.5,045.5,0.222,748.9,01.17,0.508
2017-05-09 03:28:00,1789E-3,5C000400,-0724,0834,12195,027.5,045.4,0.222,748.8,01.17,0.508
2017-05-09 03:29:00,1704E-3,5C000400,-0724,0834,12204,027.5,045.5,0.222,748.8,01.17,0.508
2017-05-09 03:30:00,1632E-3,5C000400,-0724,0835,12027,027.5,045.4,0.222,748.8,01.17,0.508
2017-05-09 03:31:00,1578E-3,5C000400,-0724,0835,12088,027.5,045.5,0.222,748.9,01.17,0.508
2017-05-09 03:32:00,1744E-3,5C000400,-0724,0835,12174,027.5,045.5,0.221,748.9,01.17,0.508
2017-05-09 03:33:00,1812E-3,5C000400,-0724,0835,12093,027.6,045.5,0.222,748.9,01.17,0.508
2017-05-09 03:34:00,1622E-3,5C000400,-0724,0834,12185,027.5,045.4,0.222,748.8,01.17,0.508
2017-05-09 03:35:00,1814E-3,5C000400,-0724,0834,11828,027.4,045.4,0.222,748.8,01.17,0.508
2017-05-09 03:36:00,1723E-3,5C000400,-0724,0834,12235,027.4,045.4,0.222,748.8,01.17,0.508
2017-05-09 03:37:00,1793E-3,5C000400,-0724,0834,12106,027.4,045.4,0.222,748.9,01.17,0.508
2017-05-09 03:38:00,1696E-3,5C000400,-0724,0835,12096,027.4,045.4,0.222,748.8,01.17,0.508
2017-05-09 03:39:00,1595E-3,5C000400,-0724,0835,12063,027.4,045.4,0.222,748.8,01.17,0.508
2017-05-09 03:40:00,1689E-3,5C000400,-0724,0835,12117,027.4,045.4,0.222,748.8,01.17,0.508
2017-05-09 03:41:00,1711E-3,5C000400,-0724,0834,12200,027.5,045.4,0.222,748.8,01.17,0.508
2017-05-09 03:42:00,1692E-3,5C000400,-0724,0835,11029,027.4,045.4,0.222,748.9,01.17,0.508
2017-05-09 03:43:00,1823E-3,5C000400,-0724,0834,12044,027.4,045.4,0.222,748.8,01.17,0.508
2017-05-09 03:44:00,1790E-3,5C000400,-0724,0835,12007,027.4,045.4,0.222,748.9,01.17,0.508
2017-05-09 03:45:00,1764E-3,5C000400,-0724,0833,12146,027.4,045.4,0.222,748.8,01.17,0.508
2017-05-09 03:46:00,1701E-3,5C000400,-0724,0834,12017,027.4,045.5,0.222,748.9,01.17,0.508
2017-05-09 03:47:00,1836E-3,5C000400,-0724,0835,12036,027.5,045.4,0.222,748.8,01.17,0.508
2017-05-09 03:48:00,1751E-3,5C000400,-0724,0834,12208,027.4,045.4,0.222,748.9,01.17,0.508
2017-05-09 03:49:00,1722E-3,5C000400,-0724,0835,11981,027.4,045.4,0.222,748.9,01.17,0.508
2017-05-09 03:50:00,1854E-3,5C000400,-0724,0834,11899,027.4,045.4,0.222,748.9,01.17,0.508
2017-05-09 03:51:00,1797E-3,5C000400,-0724,0834,12022,027.4,045.4,0.222,748.9,01.17,0.508
2017-05-09 03:52:00,1898E-3,5C000400,-0724,0835,11136,027.4,045.4,0.222,748.9,01.17,0.508
2017-05-09 03:53:00,1820E-3,5C000400,-0724,0834,12087,027.4,045.5,0.222,748.9,01.17,0.508
2017-05-09 03:54:00,1693E-3,5C000400,-0724,0834,12115,027.4,045.4,0.222,748.9,01.17,0.508
2017-05-09 03:55:00,1645E-3,5C000400,-0724,0835,12055,027.4,045.5,0.222,748.9,01.17,0.508
2017-05-09 03:56:00,1701E-3,5C000400,-0724,0833,12238,027.4,045.4,0.222,748.9,01.17,0.508
2017-05-09 03:57:00,1635E-3,5C000400,-0724,0835,12144,027.4,045.4,0.222,748.9,01.17,0.508
2017-05-09 03:58:00,1706E-3,5C000400,-0724,0835,12126,027.4,045.4,0.222,748.9,01.17,0.508
2017-05-09 03:59:00,1696E-3,5C000400,-0724,0834,12143,027.4,045.4,0.222,748.9,01.17,0.508
2017-05-09 04:00:00,1670E-3,5C000400,-0724,0833,12013,027.4,045.4,0.222,748.9,01.17,0.508
2017-05-09 04:01:00,1746E-3,5C000400,-0724,0834,12038,027.4,045.4,0.222,748.9,01.17,0.508
2017-05-09 04:02:00,1960E-3,5C000400,-0724,0834,12059,027.4,045.4,0.222,748.9,01.17,0.508
2017-05-09 04:03:00,1813E-3,5C000400,-0724,0835,12095,027.4,045.4,0.222,748.9,01.17,0.508
2017-05-09 04:04:00,1735E-3,5C000400,-0724,0835,12092,027.4,045.4,0.222,748.9,01.17,0.508
2017-05-09 04:05:00,1567E-3,5C000400,-0724,0835,12098,027.4,045.4,0.222,748.9,01.17,0.508
2017-05-09 04:06:00,1707E-3,5C000400,-0724,0835,12224,027.3,045.4,0.222,748.9,01.17,0.508
2017-05-09 04:07:00,1741E-3,5C000400,-0724,0834,12112,027.3,045.4,0.222,748.9,01.17,0.508
2017-05-09 04:08:00,1842E-3,5C000400,-0724,0835,12160,027.3,045.4,0.222,748.9,01.17,0.508
2017-05-09 04:09:00,1768E-3,5C000400,-0724,0835,12270,027.4,045.5,0.222,748.9,01.17,0.508
2017-05-09 04:10:00,1763E-3,5C000400,-0724,0833,12034,027.4,045.5,0.223,748.8,01.17,0.508
2017-05-09 04:11:00,1681E-3,5C000400,-0724,0834,11954,027.3,045.4,0.223,748.8,01.17,0.508
2017-05-09 04:12:00,1773E-3,5C000400,-0724,0835,12117,027.3,045.4,0.222,748.9,01.17,0.508
2017-05-09 04:13:00,1667E-3,5C000400,-0724,0835,12198,027.3,045.4,0.223,748.8,01.17,0.508
2017-05-09 04:14:00,1708E-3,5C000400,-0724,0834,12138,027.3,045.4,0.222,748.9,01.17,0.508
2017-05-09 04:15:00,1716E-3,5C000400,-0724,0834,12041,027.3,045.4,0.222,748.9,01.17,0.508
2017-05-09 04:16:00,1822E-3,5C000400,-0724,0834,12110,027.3,045.4,0.222,748.9,01.17,0.508
2017-05-09 04:17:00,1665E-3,5C000400,-0724,0835,12193,027.4,045.4,0.222,748.9,01.17,0.508
2017-05-09 04:18:00,1685E-3,5C000400,-0724,0834,12199,027.3,045.4,0.222,748.9,01.17,0.508
2017-05-09 04:19:00,1747E-3,5C000400,-0724,0834,12148,027.3,045.4,0.222,748.9,01.17,0.508
2017-05-09 04:20:00,1657E-3,5C000400,-0724,0835,12135,027.3,045.4,0.222,748.9,01.17,0.508